User: anonymous   Login
Location: Eaton
(41.3139°N, 82.0207°W)
Time: 10:05:52
(UTC+00:00)
Language:

Cosmos 841 Rocket - Orbit

View from above orbital plane
View from above orbital plane
View from above satellite
View from above satellite

Ground track
Ground track

The orbit data is extracted from the following two-line orbital elements,

1 09023U 76069B   21259.32698193  .00000048  00000-0  23849-4 0  9994
2 09023  74.0416 111.8225 0018543 254.4320 105.4788 14.39693682367896
Epoch (UTC): 16 September 2021 07:50:51
Eccentricity: 0.0018543
inclination: 74.0416°
perigee height: 746 km
apogee height: 773 km
right ascension of ascending node: 111.8225°
argument of perigee: 254.4320°
revolutions per day: 14.39693682
mean anomaly at epoch: 105.4788°
orbit number at epoch: 36789

The dashed part of the orbit path shows where the satellite is in the earth's shadow,  

DLR